Location: Chester
(43.2628°N, 72.5951°W)
Time: 16:51:46
(UTC-05:00)

ISS - Pass Details

Date: 25 January 2021
Orbit: 417 x 422 km, 51.6° (Epoch: 08 March)

Event Time Altitude Azimuth Distance (km) Brightness Sun altitude
Rises 18:10:20 0° 278° (W) 2,370 1.5 -14.0°
Reaches altitude 10° 18:12:44 10° 293° (WNW) 1,507 -0.1 -14.5°
Maximum altitude 18:15:30 23° 348° (NNW) 960 -2.0 -14.9°
Enters shadow 18:16:53 18° 23° (NNE) 1,124 -1.9 -15.2°
